{"data":{"norad_id":57191,"epoch":"2026-09-19T21:42:30.575520Z","epoch_age_seconds":65785,"freshness":"FRESH","line1":"1 57191U 23091AB  26262.90452055  .00003247  00000+0  15419-3 0  9994","line2":"2 57191  97.4948 320.0759 0015911 154.1213 206.0821 15.19852103178332","mean_motion":15.19852103,"eccentricity":0.0015911,"inclination_deg":97.4948,"raan_deg":320.0759,"arg_perigee_deg":154.1213,"mean_anomaly_deg":206.0821,"bstar":0.00015419,"rev_number":17833,"period_min":94.746060959327,"perigee_km":495.33338631861,"apogee_km":517.24100098766,"semimajor_km":6884.4241936531,"source":"CELESTRAK","updated_at":"2026-09-20T09:00:45.238696Z"}}